x

Gulf Of Maine - 78 Nm East Of Portsmouth, Nh (44005) Wave Buoy

4:50 - Tue 27th Jan 2015 All times are EST. -5 hours from GMT.

  • Sig Wave height 26.6ft
  • Peak Period 10s
  • Average Period 8s
  • Wind
    47mph, 58mph gusts
  • Sea Temp 45°f
  • Air Temp 28°f
  • Sea Pressure 997.7mb
  • Gulf Of Maine - 78 Nm East Of Portsmouth, Nh
  • Gulf Of Maine - 78 Nm East Of Portsmouth, Nh

More Historic Weather Station data

Upgrade to MSW Pro to gain access to the past 30 days of data for over 8000 Wavebouys and Weather Stations around the globe.

Join Pro

Comparision Forecast

View Surf forecast
   
mar. 01/27 4:50 26.5ft 10s 8s 47 58 mph 997.7mb 45f 28f
3:50 23ft 10s 8s 47 56 mph 1000.8mb 45f 29f
2:50 19.5ft 9s 7s 47 56 mph 1003.3mb 45f 29f
1:50 16ft 8s 7s 43 51 mph 1006.1mb 45f 29f
12:50 15.5ft 8s 7s 40 49 mph 1008.8mb 45f 29f
lun. 01/26 11:50 11.5ft 8s 6s 38 47 mph 1010.6mb 45f 29f
10:50 9.5ft 7s 5s 36 45 mph 1013mb 45f 31f
9:50 9ft 6s 5s 34 43 mph 1015.4mb 45f 31f
8:50 7.5ft 6s 5s 31 40 mph 1017.2mb 45f 30f
7:50 6ft 5s 5s 27 38 mph 1018.4mb 45f 29f
6:50 6ft 10s 5s 25 31 mph 1019.3mb 45f 28f
5:50 5ft 10s 5s 25 29 mph 1019.6mb 45f 27f
4:50 4.5ft 10s 5s 22 27 mph 1019.2mb 45f 27f
3:50 4.5ft 11s 5s 20 29 mph 1019.1mb 45f 26f
2:50 4ft 11s 5s 18 22 mph 1019.6mb 45f 25f
1:50 4ft 11s 5s 16 22 mph 1020.2mb 45f 24f
12:50 4ft 5s 5s 16 20 mph 1020mb 45f 22f
11:50 3.5ft 12s 5s 16 22 mph 1020.9mb 45f 22f
10:50 4ft 12s 5s 16 22 mph 1022.1mb 45f 22f
9:50 4ft 12s 5s 16 20 mph 1021.9mb 45f 21f
8:50 4.5ft 12s 6s 13 18 mph 1021.7mb 45f 21f
7:50 5ft 11s 5s 13 18 mph 1021.2mb 45f 20f
6:50 6ft 11s 5s 16 25 mph 1020.2mb 45f 21f
5:50 6.5ft 11s 6s 20 29 mph - 45f 21f
4:50 6.5ft 11s 5s 20 25 mph 1018.2mb 45f 22f
3:50 7ft 6s 5s 18 25 mph - 45f 23f
2:50 7.5ft 6s 5s 20 27 mph 1016.8mb 45f 23f
1:50 8ft 6s 5s 25 31 mph 1016.7mb 45f 23f
12:50 7.5ft 6s 5s 25 31 mph 1015.5mb 45f 22f
dim. 01/25 11:50 7ft 6s 5s 27 31 mph 1014.8mb 45f 23f
10:50 8ft 6s 5s 27 36 mph 1014mb 45f 24f
9:50  -   -   -  27 34 mph 1012.9mb 45f 26f
8:50 8ft 6s 5s 27 34 mph 1011.4mb 45f 27f
7:50  -   -   -  27
mph
- - -
6:50 9ft 13s 6s 27 34 mph 1008.3mb 45f 31f
5:50  -   -   -  25 31 mph 1007mb 45f 32f
4:50  -   -   -  27 36 mph 1004.8mb 45f 33f
3:50 9.5ft 12s 6s 29 34 mph 1002.8mb 45f 34f
2:50 10.5ft 12s 6s 27 34 mph 1001.3mb 45f 35f
1:50  -   -   -  27 34 mph 1000mb 45f 35f
12:50  -   -   -  27 34 mph 999mb 45f 38f
11:50 10ft 14s 6s 29 36 mph 998mb 45f 38f
10:50 10ft 14s 6s 31 36 mph 997.2mb 45f 40f
9:50 11ft 7s 6s 31 43 mph 996mb 45f 41f
8:50  -   -   -  34
mph
- - 41f
7:50  -   -   -  27 34 mph 994.8mb 45f 40f
6:50 10ft 14s 6s 25 31 mph 994.2mb 45f 39f
5:50 10ft 13s 7s 25 31 mph 992.9mb 45f 39f
4:50  -   -   -  25 31 mph 991.9mb 45f 39f
3:50 9ft 13s 6s 25 29 mph 990.8mb 45f 38f
2:50 9.5ft 11s 6s 22 27 mph 989.6mb 45f 38f
1:50 9.5ft 11s 6s 27 34 mph 988.3mb 45f 38f
12:50 8ft 7s 6s 27 34 mph 987mb 45f 38f
sam. 01/24 11:50  -   -   -  27 31 mph 986mb 45f 37f
10:50 10ft 7s 6s 36 43 mph 984.9mb 45f 35f
9:50 9ft 7s 5s 34 40 mph 983.8mb 45f 35f
8:50 9.5ft 7s 5s 36 43 mph 981.9mb 45f 35f
7:50 8.5ft 7s 5s 31 38 mph 982.7mb 45f 36f
6:50 8ft 6s 5s 31 36 mph 982.9mb 45f 38f
5:50 6ft 5s 5s 34 40 mph 982.5mb 45f 39f
4:50 5ft 5s 4s 31 36 mph 984.7mb 45f 39f
3:50 4ft 4s 4s 27 31 mph 988.7mb 45f 39f
2:50 3.5ft 3s 4s 22 27 mph 991.4mb 45f 38f
1:50 2.5ft 6s 4s 20 25 mph 993.4mb 45f 37f
12:50 3.5ft 5s 5s 13 16 mph 996.9mb 45f 36f
11:50 3.5ft 6s 5s 9 11 mph 999.7mb 45f 35f
10:50 4.5ft 6s 5s 2 4 mph 1002.5mb 45f 36f
9:50 5ft 6s 5s 7 9 mph 1004.5mb 46f 37f
8:50 6ft 6s 5s 16 20 mph 1005.9mb 46f 38f
7:50 6ft 6s 5s 25 29 mph 1007.2mb 45f 39f
6:50 5.5ft 6s 5s 25 29 mph 1007.7mb 45f 39f
5:50  -   -   -  22 27 mph 1007.4mb 45f 39f
4:50 5.5ft 6s 5s 20 25 mph 1007.9mb 45f 38f
3:50 6.5ft 7s 5s 20 25 mph 1008.4mb 45f 38f
2:50 7.5ft 6s 5s 22 27 mph 1009.8mb 45f 38f
1:50 7ft 6s 5s 25 29 mph 1010.4mb 45f 38f
12:50 6ft 6s 5s 25 29 mph 1010.7mb 45f 38f
ven. 01/23 11:50 6ft 6s 5s 27 31 mph 1011.8mb 45f 38f
10:50 6ft 6s 5s 25 29 mph 1012.6mb 45f 38f
9:50 5ft 5s 4s 22 29 mph 1013.9mb 45f 38f
8:50 4.5ft 5s 4s 25 31 mph 1014.7mb 45f 38f
7:50 4.5ft 5s 4s 22 27 mph 1015.7mb 45f 37f
6:50 4.5ft 11s 5s 20 25 mph 1016.2mb 45f 35f
5:50 4.5ft 11s 5s 20 25 mph 1016.6mb 45f 34f
4:50 5ft 9s 5s 20 27 mph 1016.7mb 45f 34f
3:50 5ft 10s 6s 18 22 mph 1017.1mb 45f 33f
2:50 4.5ft 10s 6s 18 25 mph 1017.6mb 45f 32f
1:50 4.5ft 10s 6s 16 20 mph 1018.6mb 45f 31f
12:50 3.5ft 11s 5s 13 18 mph 1019.5mb 45f 32f
11:50 3.5ft 11s 5s 13 18 mph 1020.7mb 45f 31f